Location: Unspecified
(33.7438°N, 118.3804°W)
Time: 11:35:07
(UTC+00:00)

Daily predictions for brighter satellites

Satellite Brightness Start Highest point End
(mag) Time Altitude Azimuth Time Altitude Azimuth Time Altitude Azimuth
Cosmos 2278 Rocket 2.2 12:10:14 57° SW 12:10:14 57° SW 12:15:22 10° S
Cosmos 1437 Rocket 3.9 12:08:31 10° SSE 12:12:05 42° E 12:15:40 10° NNE
COSMOS 2441 4.2 12:07:20 10° N 12:12:14 77° WNW 12:13:23 52° SSW
MSX 3.7 12:07:59 10° N 12:13:42 70° WNW 12:17:38 21° SSW
Cosmos 1140 Rocket 4.4 12:16:45 31° NNW 12:16:45 31° NNW 12:19:58 10° N
SL-8 R/B 3.5 12:18:12 64° WSW 12:18:55 84° NW 12:23:43 10° NE
Cosmos 1954 Rocket 4.0 12:19:42 52° WNW 12:19:45 52° WNW 12:24:51 10° N
Cosmos 1726 4.0 12:17:39 10° NNE 12:20:55 30° E 12:24:13 10° SE
Iridium 45 4.4 12:23:18 10° N 12:26:59 89° W 12:30:28 10° S
NOSS 3-2 (C) 4.2 12:23:41 23° NW 12:28:40 52° WSW 12:36:54 10° S
PAYLOAD A 4.0 12:27:56 10° N 12:32:46 55° WNW 12:37:45 10° SSW
USA 234 3.8 12:27:14 10° ESE 12:33:34 55° NE 12:39:55 10° NW
Cosmos 2058 Rocket 3.8 12:31:23 10° N 12:35:45 56° E 12:40:08 10° SSE
In-Cosmos 22 4.0 12:32:02 10° SSW 12:37:20 70° W 12:42:47 10° N
Okean O Rocket 4.0 12:35:16 10° NE 12:38:51 25° E 12:42:24 10° SSE
Cosmos 2154 Rocket 4.1 12:34:50 10° SSW 12:40:49 52° W 12:46:51 10° N
Cosmos 2237 Rocket 4.0 12:45:07 14° NW 12:45:07 14° NW 12:47:07 10° NNW
Cosmos 1674 2.6 12:40:25 10° S 12:44:06 80° E 12:47:49 10° N
CZ-2C R/B 2.6 12:39:20 10° N 12:44:20 53° WNW 12:49:15 10° SSW
Cosmos 1953 2.8 12:45:02 36° W 12:45:18 37° W 12:48:58 10° SSW
Meteor 1-31 Rocket 2.9 12:45:39 10° N 12:49:18 46° WNW 12:52:56 10° SSW
Cosmos 1892 Rocket 3.8 12:45:24 10° SSW 12:49:37 44° W 12:53:50 10° N
BREEZE-M DEB (TANK) 4.1 12:49:13 14° N 12:50:30 22° NE 12:52:47 10° E
H-2A R/B 3.8 12:47:39 10° NNW 12:50:10 22° NW 12:50:10 22° NW
Milstar 3 Cent rocket 2.8 12:47:16 18° WSW 12:51:20 44° S 12:55:46 10° ESE
ATLAS 3B R/B 2.9 12:47:23 11° NW 12:53:37 50° WSW 13:00:17 10° S
Meteor 2-5 Rocket 3.7 12:50:09 10° S 12:55:56 81° W 13:01:51 10° N
CZ-4B R/B 3.3 12:56:58 10° N 13:00:29 35° WNW 13:03:52 10° SW
Cosmos 1626 4.4 12:57:48 10° SSE 13:01:00 28° E 13:04:14 10° NNE
CENTAUR R/B 3.5 12:54:03 10° NW 13:01:54 45° WSW 13:10:00 10° S
Cosmos 2369 Rocket 4.1 12:58:06 10° N 13:02:55 29° ENE 13:07:42 10° ESE
Nadezhda 3 Rocket 4.2 12:57:43 10° NNW 13:03:44 47° W 13:09:41 10° SSW
CZ-4B DEB 4.3 12:58:16 10° NNE 13:03:44 79° ESE 13:09:10 10° S
Cosmos 1741 Rocket 4.1 12:58:37 10° SSW 13:03:49 55° WNW 13:09:03 10° N
Cosmos 1484 Rocket 2.6 13:00:53 10° N 13:04:43 78° WNW 13:08:36 10° SSW
Cosmos 1606 Rocket 4.3 13:02:02 10° NNW 13:05:43 28° W 13:09:25 10° SSW
Cosmos 2341 Rocket 4.1 13:05:22 10° SSW 13:11:23 51° W 13:17:25 10° N
Cosmos 1763 Rocket 4.4 13:06:35 10° N 13:11:34 49° ENE 13:16:28 10° SE
GP-B 3.4 13:08:21 10° SSW 13:12:34 44° W 13:16:49 10° NNW
Milstar 3 3.3 13:08:29 11° WSW 13:15:07 53° S 13:22:05 10° E
CZ-4B R/B 3.6 13:11:24 10° NNE 13:16:40 66° ESE 13:21:55 10° S
PAYLOAD B 4.2 13:15:03 10° NNE 13:20:37 82° WNW 13:26:07 10° SSW
BREEZE-M DEB (TANK) 4.3 13:18:05 12° W 13:22:14 26° NNW 13:24:55 10° NNE
Cosmos 1626 Rocket 3.5 13:19:09 10° SSW 13:23:22 57° W 13:27:38 10° N
Cosmos 1943 Rocket 3.1 13:18:16 10° N 13:23:48 52° ENE 13:29:17 10° SE
Cosmos 1959 Rocket 4.4 13:19:36 10° SSW 13:25:40 69° W 13:31:49 10° N
METEOR-M 4.2 13:20:35 10° NNE 13:25:57 89° WNW 13:31:17 10° SSW
Cosmos 1812 Rocket 4.4 13:22:33 10° N 13:26:57 57° E 13:31:18 10° SSE
ALOS 2.2 13:22:35 10° N 13:27:16 85° WNW 13:31:55 10° SSW
SL-8 Rocket 4.1 13:22:34 10° SSW 13:28:34 52° W 13:34:34 10° N
FENGYUN 3A 3.7 13:24:38 10° NNE 13:30:06 88° WNW 13:35:32 10° SSW
GPS 2-04 Rocket1 4.3 13:27:42 10° SW 13:31:31 34° SSE 13:35:18 10° E
NOAA 6 4.1 13:26:31 10° NNE 13:31:42 90° ESE 13:36:50 10° SSW
Cosmos 2228 4.5 13:29:31 10° NW 13:32:06 16° W 13:34:40 10° SW
Helios 1A Rocket 3.0 13:28:33 10° N 13:32:39 60° WNW 13:36:43 10° SSW
COSMO-SKYMED 1 2.6 13:28:23 10° S 13:32:39 60° W 13:36:57 10° NNW
SL-14 R/B 3.2 13:30:35 10° SSW 13:34:30 72° W 13:38:24 10° N
ASTEX 1 3.6 13:32:03 10° SSE 13:36:54 77° E 13:41:48 10° N
Cosmos 2366 rocket 4.1 13:32:45 10° SSW 13:38:57 57° W 13:45:13 10° N
Cosmos 1603 3.9 13:33:37 10° SW 13:39:02 51° WNW 13:44:34 10° N
SL-16 R/B 3.8 13:36:45 10° W 13:39:41 14° NW 13:42:37 10° NNW
